GSAT0208 (GALILEO 11)

Last updated on Wed Sep 16 2026 00:02:50 GMT+0000 (Coordinated Universal Time)

1 41175U 15079B 26258.59360649 .00000004 00000+0 00000+0 0 9997 2 41175 55.8828 98.7769 0003251 27.6372 332.4529 1.70473800 66730
UTC large
Height (km)
Speed (km/s)
/
Latitude / Longitude
Inclination (degrees)
Orbital Period (minutes)
Azimuth
Elevation
Range (km)
Doppler Factor

Next 0 passes for location: London (51.5072 / 0.1276)

No passes found over London.
GSAT0208 (GALILEO 11)